| time (UTC) | temp F | wind direction | speed MPH | gust MPH | rain 1hr in | rain 24hr in | rain mn in | humidity % | barometer mb |
| 20260509113056 | 48 | 0 | 0.0 | 1.0 | 0.00 | 0.00 | 0.00 | 63 | 1003.6 |
| 20260509112556 | 49 | 0 | 0.0 | 2.0 | 0.00 | 0.00 | 0.00 | 60 | 1003.5 |
| 20260509112059 | 49 | 143 | 0.0 | 4.0 | 0.00 | 0.00 | 0.00 | 59 | 1003.3 |
| 20260509111557 | 49 | 240 | 0.0 | 4.0 | 0.00 | 0.00 | 0.00 | 58 | 1003.6 |
| 20260509111056 | 49 | 291 | 1.0 | 4.0 | 0.00 | 0.00 | 0.00 | 58 | 1003.9 |
| 20260509110557 | 49 | 274 | 1.0 | 3.0 | 0.00 | 0.00 | 0.00 | 57 | 1003.8 |
| 20260509110057 | 49 | 289 | 0.0 | 2.0 | 0.00 | 0.00 | 0.00 | 58 | 1003.7 |
| 20260509105556 | 49 | 0 | 0.0 | 3.0 | 0.00 | 0.00 | 0.00 | 58 | 1003.6 |
| 20260509105056 | 49 | 0 | 0.0 | 3.0 | 0.00 | 0.00 | 0.00 | 57 | 1003.6 |
| 20260509104557 | 49 | 281 | 1.0 | 3.0 | 0.00 | 0.00 | 0.00 | 57 | 1003.4 |
| 20260509104056 | 49 | 266 | 1.0 | 3.0 | 0.00 | 0.00 | 0.00 | 57 | 1003.6 |
| 20260509103554 | 49 | 238 | 1.0 | 3.0 | 0.00 | 0.00 | 0.00 | 57 | 1003.4 |
| 20260509103101 | 49 | 287 | 1.0 | 3.0 | 0.00 | 0.00 | 0.00 | 57 | 1003.4 |
| 20260509102554 | 49 | 284 | 1.0 | 3.0 | 0.00 | 0.00 | 0.00 | 57 | 1003.3 |
| 20260509102054 | 49 | 293 | 1.0 | 3.0 | 0.00 | 0.00 | 0.00 | 57 | 1003.2 |
| 20260509101600 | 48 | 284 | 1.0 | 3.0 | 0.00 | 0.00 | 0.00 | 57 | 1003.2 |
| 20260509101053 | 48 | 295 | 1.0 | 4.0 | 0.00 | 0.00 | 0.00 | 57 | 1003.1 |
| 20260509100553 | 48 | 315 | 1.0 | 4.0 | 0.00 | 0.00 | 0.00 | 57 | 1003.3 |
| 20260509100058 | 48 | 283 | 1.0 | 6.0 | 0.00 | 0.00 | 0.00 | 57 | 1003.2 |
| 20260509095554 | 47 | 293 | 3.0 | 6.0 | 0.00 | 0.00 | 0.00 | 57 | 1003.2 |
| 20260509095059 | 46 | 288 | 3.0 | 6.0 | 0.00 | 0.00 | 0.00 | 60 | 1003.4 |
| 20260509094600 | 45 | 257 | 0.0 | 3.0 | 0.00 | 0.00 | 0.00 | 61 | 1002.6 |
| 20260509094054 | 45 | 185 | 1.0 | 3.0 | 0.00 | 0.00 | 0.00 | 61 | 1002.5 |
| 20260509093557 | 44 | 186 | 0.0 | 1.0 | 0.00 | 0.00 | 0.00 | 63 | 1002.5 |
| 20260509093100 | 44 | 0 | 0.0 | 2.0 | 0.00 | 0.00 | 0.00 | 65 | 1002.5 |
| 20260509092555 | 44 | 0 | 0.0 | 3.0 | 0.00 | 0.00 | 0.00 | 64 | 1002.5 |
| 20260509092054 | 44 | 217 | 1.0 | 3.0 | 0.00 | 0.00 | 0.00 | 64 | 1002.5 |
| 20260509091622 | 43 | 232 | 1.0 | 2.0 | 0.00 | 0.00 | 0.00 | 64 | 1002.6 |
| 20260509091054 | 43 | 271 | 0.0 | 3.0 | 0.00 | 0.00 | 0.00 | 65 | 1002.6 |
| 20260509090554 | 42 | 184 | 0.0 | 4.0 | 0.00 | 0.00 | 0.00 | 64 | 1002.5 |
| 20260509090100 | 43 | 0 | 1.0 | 4.0 | 0.00 | 0.00 | 0.00 | 63 | 1002.6 |
| 20260509085553 | 43 | 254 | 2.0 | 3.0 | 0.00 | 0.00 | 0.00 | 62 | 1002.6 |
| 20260509085054 | 43 | 240 | 0.0 | 3.0 | 0.00 | 0.00 | 0.00 | 60 | 1002.5 |
| 20260509084558 | 43 | 271 | 1.0 | 3.0 | 0.00 | 0.00 | 0.00 | 60 | 1002.5 |
| 20260509084054 | 44 | 236 | 1.0 | 3.0 | 0.00 | 0.00 | 0.00 | 60 | 1002.5 |
| 20260509083553 | 43 | 195 | 0.0 | 2.0 | 0.00 | 0.00 | 0.00 | 61 | 1002.6 |
| 20260509083058 | 43 | 0 | 0.0 | 1.0 | 0.00 | 0.00 | 0.00 | 62 | 1002.5 |
| 20260509082553 | 43 | 196 | 0.0 | 3.0 | 0.00 | 0.00 | 0.00 | 63 | 1002.6 |
| 20260509082057 | 43 | 250 | 0.0 | 3.0 | 0.00 | 0.00 | 0.00 | 63 | 1002.5 |
| 20260509081557 | 44 | 252 | 1.0 | 3.0 | 0.00 | 0.00 | 0.00 | 62 | 1002.6 |
| 20260509081052 | 45 | 252 | 0.0 | 2.0 | 0.00 | 0.00 | 0.00 | 59 | 1002.3 |
| 20260509080556 | 44 | 254 | 1.0 | 2.0 | 0.00 | 0.00 | 0.00 | 59 | 1002.1 |
| 20260509080107 | 43 | 260 | 0.0 | 2.0 | 0.00 | 0.00 | 0.00 | 60 | 1002.2 |
| 20260509075556 | 43 | 207 | 0.0 | 2.0 | 0.00 | 0.00 | 0.00 | 60 | 1002.3 |
| 20260509075054 | 43 | 190 | 0.0 | 2.0 | 0.00 | 0.00 | 0.00 | 61 | 1002.3 |
| 20260509074559 | 43 | 0 | 0.0 | 2.0 | 0.00 | 0.00 | 0.00 | 61 | 1002.5 |
| 20260509074056 | 44 | 206 | 0.0 | 2.0 | 0.00 | 0.00 | 0.00 | 59 | 1002.5 |
| 20260509073554 | 44 | 271 | 0.0 | 2.0 | 0.00 | 0.00 | 0.00 | 58 | 1002.4 |
| 20260509073141 | 44 | 0 | 0.0 | 3.0 | 0.00 | 0.00 | 0.00 | 58 | 1002.4 |
| 20260509072557 | 44 | 0 | 1.0 | 3.0 | 0.00 | 0.00 | 0.00 | 59 | 1002.6 |
| 20260509072053 | 43 | 178 | 2.0 | 3.0 | 0.00 | 0.00 | 0.00 | 59 | 1002.7 |
| 20260509071558 | 43 | 200 | 0.0 | 2.0 | 0.00 | 0.00 | 0.00 | 60 | 1002.8 |
| 20260509071054 | 44 | 239 | 0.0 | 2.0 | 0.00 | 0.00 | 0.00 | 59 | 1002.9 |
| 20260509070557 | 45 | 252 | 0.0 | 1.0 | 0.00 | 0.00 | 0.00 | 57 | 1003.0 |
| 20260509070100 | 45 | 216 | 0.0 | 2.0 | 0.00 | 0.00 | 0.00 | 57 | 1002.8 |
| 20260509065553 | 45 | 169 | 0.0 | 2.0 | 0.00 | 0.00 | 0.00 | 56 | 1002.8 |
| 20260509065054 | 45 | 184 | 1.0 | 1.0 | 0.00 | 0.00 | 0.00 | 57 | 1002.9 |
| 20260509064556 | 45 | 0 | 0.0 | 1.0 | 0.00 | 0.00 | 0.00 | 57 | 1003.1 |
| 20260509064056 | 45 | 0 | 0.0 | 1.0 | 0.00 | 0.00 | 0.00 | 56 | 1003.1 |
| 20260509063553 | 45 | 0 | 0.0 | 1.0 | 0.00 | 0.00 | 0.00 | 56 | 1003.1 |
| 20260509063103 | 45 | 0 | 0.0 | 1.0 | 0.00 | 0.00 | 0.00 | 55 | 1003.3 |
| 20260509062554 | 46 | 195 | 0.0 | 1.0 | 0.00 | 0.00 | 0.00 | 55 | 1003.4 |
| 20260509062056 | 46 | 0 | 0.0 | 0.0 | 0.00 | 0.00 | 0.00 | 55 | 1003.5 |
| 20260509061601 | 47 | 0 | 0.0 | 0.0 | 0.00 | 0.00 | 0.00 | 55 | 1003.4 |
| 20260509061054 | 47 | 203 | 0.0 | 1.0 | 0.00 | 0.00 | 0.00 | 54 | 1003.4 |
| 20260509060556 | 48 | 205 | 0.0 | 2.0 | 0.00 | 0.00 | 0.00 | 53 | 1003.4 |
| 20260509060107 | 49 | 195 | 1.0 | 2.0 | 0.00 | 0.00 | 0.00 | 51 | 1003.4 |
| 20260509055554 | 49 | 194 | 0.0 | 1.0 | 0.00 | 0.00 | 0.00 | 50 | 1003.4 |
| 20260509055054 | 50 | 191 | 0.0 | 1.0 | 0.00 | 0.00 | 0.00 | 49 | 1003.5 |
| 20260509054612 | 50 | 208 | 0.0 | 1.0 | 0.00 | 0.00 | 0.00 | 48 | 1003.6 |
| 20260509054053 | 51 | 198 | 0.0 | 1.0 | 0.00 | 0.00 | 0.00 | 49 | 1003.7 |
| 20260509053553 | 52 | 0 | 0.0 | 1.0 | 0.00 | 0.00 | 0.00 | 46 | 1003.7 |
| 20260509053055 | 52 | 291 | 0.0 | 1.0 | 0.00 | 0.00 | 0.00 | 47 | 1003.7 |
| 20260509052553 | 51 | 259 | 0.0 | 1.0 | 0.00 | 0.00 | 0.00 | 47 | 1003.7 |
| 20260509052053 | 52 | 0 | 0.0 | 1.0 | 0.00 | 0.00 | 0.00 | 47 | 1003.8 |
| 20260509051557 | 52 | 0 | 0.0 | 1.0 | 0.00 | 0.00 | 0.00 | 47 | 1003.8 |
| 20260509051054 | 53 | 0 | 0.0 | 1.0 | 0.00 | 0.00 | 0.00 | 46 | 1003.8 |
| 20260509050554 | 53 | 273 | 0.0 | 2.0 | 0.00 | 0.00 | 0.00 | 45 | 1003.9 |
| 20260509050059 | 54 | 288 | 0.0 | 3.0 | 0.00 | 0.00 | 0.00 | 45 | 1003.8 |
| 20260509045554 | 54 | 295 | 1.0 | 3.0 | 0.00 | 0.00 | 0.00 | 43 | 1003.8 |
| 20260509045053 | 54 | 295 | 1.0 | 3.0 | 0.00 | 0.00 | 0.00 | 44 | 1003.8 |
| 20260509044555 | 54 | 272 | 1.0 | 3.0 | 0.00 | 0.00 | 0.00 | 44 | 1003.8 |
| 20260509044054 | 55 | 296 | 2.0 | 4.0 | 0.00 | 0.00 | 0.00 | 43 | 1003.9 |
| 20260509043553 | 55 | 288 | 1.0 | 4.0 | 0.00 | 0.00 | 0.00 | 43 | 1003.9 |
| 20260509043055 | 55 | 257 | 1.0 | 3.0 | 0.00 | 0.00 | 0.00 | 43 | 1003.8 |
| 20260509042555 | 55 | 285 | 2.0 | 3.0 | 0.00 | 0.00 | 0.00 | 41 | 1003.7 |
| 20260509042053 | 55 | 288 | 2.0 | 4.0 | 0.00 | 0.00 | 0.00 | 41 | 1003.8 |
| 20260509041555 | 56 | 288 | 2.0 | 4.0 | 0.00 | 0.00 | 0.00 | 41 | 1003.6 |
| 20260509041054 | 56 | 290 | 2.0 | 5.0 | 0.00 | 0.00 | 0.00 | 40 | 1003.6 |
| 20260509040554 | 57 | 304 | 2.0 | 5.0 | 0.00 | 0.00 | 0.00 | 39 | 1003.5 |
| 20260509040124 | 57 | 297 | 2.0 | 5.0 | 0.00 | 0.00 | 0.00 | 39 | 1003.5 |
| 20260509035553 | 58 | 292 | 3.0 | 6.0 | 0.00 | 0.00 | 0.00 | 38 | 1003.5 |
| 20260509035054 | 58 | 295 | 3.0 | 6.0 | 0.00 | 0.00 | 0.00 | 37 | 1003.4 |
| 20260509034600 | 58 | 283 | 2.0 | 5.0 | 0.00 | 0.00 | 0.00 | 38 | 1003.4 |
| 20260509034053 | 59 | 290 | 3.0 | 6.0 | 0.00 | 0.00 | 0.00 | 37 | 1003.3 |
| 20260509033553 | 58 | 291 | 3.0 | 6.0 | 0.00 | 0.00 | 0.00 | 37 | 1003.4 |
| 20260509033053 | 58 | 282 | 3.0 | 5.0 | 0.00 | 0.00 | 0.00 | 39 | 1003.3 |
| 20260509032554 | 57 | 290 | 2.0 | 5.0 | 0.00 | 0.00 | 0.00 | 39 | 1003.3 |
| 20260509032053 | 57 | 245 | 2.0 | 5.0 | 0.00 | 0.00 | 0.00 | 40 | 1003.2 |
| 20260509031559 | 56 | 284 | 2.0 | 4.0 | 0.00 | 0.00 | 0.00 | 39 | 1003.2 |
| 20260509031053 | 56 | 303 | 0.0 | 3.0 | 0.00 | 0.00 | 0.00 | 40 | 1003.1 |
| 20260509030553 | 56 | 282 | 0.0 | 3.0 | 0.00 | 0.00 | 0.00 | 39 | 1003.0 |
| 20260509030057 | 56 | 302 | 1.0 | 4.0 | 0.00 | 0.00 | 0.00 | 39 | 1003.1 |
| 20260509025556 | 56 | 295 | 2.0 | 4.0 | 0.00 | 0.00 | 0.00 | 39 | 1003.1 |
| 20260509025053 | 57 | 283 | 2.0 | 4.0 | 0.00 | 0.00 | 0.00 | 39 | 1003.0 |
| 20260509024557 | 56 | 300 | 0.0 | 2.0 | 0.00 | 0.00 | 0.00 | 41 | 1002.9 |
| 20260509024053 | 57 | 0 | 0.0 | 2.0 | 0.00 | 0.00 | 0.00 | 40 | 1002.8 |
| 20260509023557 | 57 | 0 | 0.0 | 3.0 | 0.00 | 0.00 | 0.00 | 38 | 1002.8 |
| 20260509023053 | 57 | 281 | 0.0 | 3.0 | 0.00 | 0.00 | 0.00 | 38 | 1002.8 |
| 20260509022557 | 58 | 297 | 1.0 | 4.0 | 0.00 | 0.00 | 0.00 | 38 | 1002.7 |
| 20260509022054 | 58 | 304 | 0.0 | 4.0 | 0.00 | 0.00 | 0.00 | 38 | 1002.6 |
| 20260509021555 | 59 | 304 | 2.0 | 4.0 | 0.00 | 0.00 | 0.00 | 37 | 1002.5 |
| 20260509021056 | 59 | 286 | 2.0 | 4.0 | 0.00 | 0.00 | 0.00 | 37 | 1002.5 |
| 20260509020554 | 59 | 294 | 2.0 | 4.0 | 0.00 | 0.00 | 0.00 | 36 | 1002.5 |
| 20260509020055 | 60 | 304 | 2.0 | 4.0 | 0.00 | 0.00 | 0.00 | 35 | 1002.4 |
| 20260509015553 | 60 | 305 | 2.0 | 3.0 | 0.00 | 0.00 | 0.00 | 36 | 1002.4 |
| 20260509015054 | 60 | 283 | 1.0 | 3.0 | 0.00 | 0.00 | 0.00 | 35 | 1002.3 |
| 20260509014554 | 61 | 290 | 1.0 | 4.0 | 0.00 | 0.00 | 0.00 | 34 | 1002.3 |
| 20260509014053 | 62 | 273 | 2.0 | 4.0 | 0.00 | 0.00 | 0.00 | 34 | 1002.2 |
| 20260509013553 | 62 | 291 | 2.0 | 5.0 | 0.00 | 0.00 | 0.00 | 33 | 1002.2 |
| 20260509013059 | 63 | 271 | 2.0 | 5.0 | 0.00 | 0.00 | 0.00 | 33 | 1002.1 |
| 20260509012553 | 63 | 297 | 2.0 | 4.0 | 0.00 | 0.00 | 0.00 | 32 | 1002.1 |
| 20260509012054 | 64 | 287 | 2.0 | 4.0 | 0.00 | 0.00 | 0.00 | 32 | 1002.1 |
| 20260509011605 | 64 | 272 | 2.0 | 5.0 | 0.00 | 0.00 | 0.00 | 32 | 1002.1 |
| 20260509011053 | 65 | 0 | 2.0 | 5.0 | 0.00 | 0.00 | 0.00 | 31 | 1002.1 |
| 20260509010554 | 65 | 297 | 2.0 | 5.0 | 0.00 | 0.00 | 0.00 | 30 | 1002.1 |
| 20260509005555 | 66 | 288 | 2.0 | 6.0 | 0.00 | 0.00 | 0.00 | 29 | 1002.0 |
| 20260509005053 | 67 | 298 | 3.0 | 7.0 | 0.00 | 0.00 | 0.00 | 29 | 1002.0 |
| 20260509004610 | 67 | 285 | 3.0 | 7.0 | 0.00 | 0.00 | 0.00 | 29 | 1002.0 |
| 20260509004055 | 68 | 302 | 4.0 | 11.0 | 0.00 | 0.00 | 0.00 | 28 | 1002.0 |
| 20260509003558 | 68 | 300 | 4.0 | 13.0 | 0.00 | 0.00 | 0.00 | 29 | 1002.1 |
| 20260509003057 | 68 | 302 | 6.0 | 13.0 | 0.00 | 0.00 | 0.00 | 28 | 1002.0 |
| 20260509002556 | 68 | 298 | 5.0 | 12.0 | 0.00 | 0.00 | 0.00 | 27 | 1001.9 |
| 20260509002055 | 69 | 299 | 6.0 | 13.0 | 0.00 | 0.00 | 0.00 | 27 | 1001.9 |
| 20260509001558 | 69 | 267 | 7.0 | 13.0 | 0.00 | 0.00 | 0.00 | 27 | 1001.9 |
| 20260509001055 | 69 | 314 | 6.0 | 13.0 | 0.00 | 0.00 | 0.00 | 27 | 1001.9 |
| 20260509000555 | 69 | 313 | 5.0 | 10.0 | 0.00 | 0.00 | 0.00 | 28 | 1001.8 |
| 20260509000105 | 69 | 301 | 4.0 | 11.0 | 0.00 | 0.00 | 0.00 | 29 | 1001.8 |
| 20260508235555 | 69 | 301 | 4.0 | 11.0 | 0.00 | 0.00 | 0.00 | 29 | 1001.8 |
| 20260508235055 | 68 | 288 | 3.0 | 7.0 | 0.00 | 0.00 | 0.00 | 30 | 1001.8 |
| 20260508234603 | 68 | 300 | 4.0 | 11.0 | 0.00 | 0.00 | 0.00 | 30 | 1001.9 |
| 20260508234052 | 68 | 299 | 5.0 | 11.0 | 0.00 | 0.00 | 0.00 | 29 | 1001.9 |
| 20260508233553 | 69 | 311 | 4.0 | 9.0 | 0.00 | 0.00 | 0.00 | 30 | 1002.0 |
| 20260508233101 | 69 | 285 | 5.0 | 11.0 | 0.00 | 0.00 | 0.00 | 30 | 1002.0 |
| 20260508232556 | 69 | 296 | 4.0 | 11.0 | 0.00 | 0.00 | 0.00 | 30 | 1002.1 |
| 20260508232052 | 69 | 314 | 6.0 | 12.0 | 0.00 | 0.00 | 0.00 | 30 | 1002.1 |
| 20260508231555 | 69 | 252 | 6.0 | 12.0 | 0.00 | 0.00 | 0.00 | 31 | 1001.9 |
| 20260508231054 | 69 | 188 | 5.0 | 12.0 | 0.00 | 0.00 | 0.00 | 31 | 1002.0 |
| 20260508230553 | 69 | 247 | 7.0 | 12.0 | 0.00 | 0.00 | 0.00 | 30 | 1002.2 |
| 20260508230100 | 69 | 316 | 5.0 | 14.0 | 0.00 | 0.00 | 0.00 | 30 | 1002.1 |
| 20260508225553 | 69 | 297 | 7.0 | 15.0 | 0.00 | 0.00 | 0.00 | 30 | 1002.2 |
| 20260508225053 | 69 | 287 | 9.0 | 15.0 | 0.00 | 0.00 | 0.00 | 29 | 1002.3 |
| 20260508224600 | 70 | 295 | 6.0 | 16.0 | 0.00 | 0.00 | 0.00 | 29 | 1002.4 |
| 20260508224053 | 69 | 247 | 8.0 | 16.0 | 0.00 | 0.00 | 0.00 | 29 | 1002.3 |
| 20260508223553 | 70 | 243 | 10.0 | 16.0 | 0.00 | 0.00 | 0.00 | 28 | 1002.1 |
| 20260508223101 | 70 | 347 | 9.0 | 16.0 | 0.00 | 0.00 | 0.00 | 28 | 1002.1 |
| 20260508222553 | 71 | 207 | 10.0 | 16.0 | 0.00 | 0.00 | 0.00 | 26 | 1002.1 |
| 20260508222054 | 70 | 259 | 5.0 | 16.0 | 0.00 | 0.00 | 0.00 | 30 | 1002.1 |
| 20260508221555 | 70 | 333 | 5.0 | 16.0 | 0.00 | 0.00 | 0.00 | 26 | 1002.3 |
| 20260508221057 | 71 | 224 | 9.0 | 16.0 | 0.00 | 0.00 | 0.00 | 25 | 1002.2 |
| 20260508220554 | 69 | 248 | 5.0 | 15.0 | 0.00 | 0.00 | 0.00 | 28 | 1002.2 |
| 20260508215552 | 70 | 244 | 9.0 | 14.0 | 0.00 | 0.00 | 0.00 | 26 | 1002.4 |
| 20260508215054 | 69 | 274 | 6.0 | 14.0 | 0.00 | 0.00 | 0.00 | 28 | 1002.5 |
| 20260508214605 | 70 | 183 | 8.0 | 14.0 | 0.00 | 0.00 | 0.00 | 25 | 1002.5 |
| 20260508214053 | 70 | 244 | 6.0 | 16.0 | 0.00 | 0.00 | 0.00 | 26 | 1002.5 |
| 20260508213553 | 70 | 241 | 9.0 | 16.0 | 0.00 | 0.00 | 0.00 | 24 | 1002.8 |
| 20260508213054 | 71 | 321 | 8.0 | 14.0 | 0.00 | 0.00 | 0.00 | 25 | 1002.8 |
| 20260508212553 | 70 | 278 | 6.0 | 12.0 | 0.00 | 0.00 | 0.00 | 24 | 1002.7 |
| 20260508212053 | 70 | 260 | 6.0 | 12.0 | 0.00 | 0.00 | 0.00 | 23 | 1002.8 |
| 20260508211555 | 70 | 240 | 4.0 | 7.0 | 0.00 | 0.00 | 0.00 | 27 | 1002.9 |
| 20260508211053 | 69 | 297 | 2.0 | 12.0 | 0.00 | 0.00 | 0.00 | 26 | 1003.0 |
| 20260508210553 | 69 | 275 | 4.0 | 12.0 | 0.00 | 0.00 | 0.00 | 28 | 1003.1 |
| 20260508210055 | 69 | 247 | 7.0 | 11.0 | 0.00 | 0.00 | 0.00 | 25 | 1003.3 |
| 20260508205557 | 70 | 255 | 4.0 | 12.0 | 0.00 | 0.00 | 0.00 | 24 | 1003.2 |
| 20260508205053 | 68 | 262 | 5.0 | 12.0 | 0.00 | 0.00 | 0.00 | 27 | 1003.4 |
| 20260508204557 | 68 | 236 | 6.0 | 11.0 | 0.00 | 0.00 | 0.00 | 27 | 1003.5 |
| 20260508204052 | 68 | 210 | 4.0 | 10.0 | 0.00 | 0.00 | 0.00 | 25 | 1003.6 |
| 20260508203552 | 69 | 172 | 4.0 | 12.0 | 0.00 | 0.00 | 0.00 | 27 | 1003.7 |
| 20260508203102 | 69 | 226 | 5.0 | 12.0 | 0.00 | 0.00 | 0.00 | 26 | 1003.7 |
| 20260508202553 | 69 | 213 | 4.0 | 8.0 | 0.00 | 0.00 | 0.00 | 26 | 1003.8 |
| 20260508202052 | 69 | 309 | 3.0 | 12.0 | 0.00 | 0.00 | 0.00 | 25 | 1003.9 |
| 20260508201557 | 69 | 317 | 4.0 | 12.0 | 0.00 | 0.00 | 0.00 | 26 | 1004.0 |
| 20260508201052 | 69 | 329 | 4.0 | 11.0 | 0.00 | 0.00 | 0.00 | 25 | 1004.0 |
| 20260508200552 | 70 | 238 | 7.0 | 11.0 | 0.00 | 0.00 | 0.00 | 24 | 1004.0 |
| 20260508200059 | 71 | 280 | 4.0 | 10.0 | 0.00 | 0.00 | 0.00 | 24 | 1004.0 |
| 20260508195556 | 70 | 213 | 3.0 | 12.0 | 0.00 | 0.00 | 0.00 | 25 | 1004.1 |
| 20260508195056 | 69 | 301 | 7.0 | 12.0 | 0.00 | 0.00 | 0.00 | 24 | 1004.2 |
| 20260508194616 | 68 | 259 | 5.0 | 11.0 | 0.00 | 0.00 | 0.00 | 25 | 1004.1 |
| 20260508194052 | 69 | 236 | 6.0 | 12.0 | 0.00 | 0.00 | 0.00 | 24 | 1004.3 |
| 20260508193556 | 69 | 269 | 5.0 | 12.0 | 0.00 | 0.00 | 0.00 | 27 | 1004.3 |
| 20260508193109 | 69 | 232 | 4.0 | 10.0 | 0.00 | 0.00 | 0.00 | 26 | 1004.3 |
| 20260508192557 | 69 | 285 | 5.0 | 13.0 | 0.00 | 0.00 | 0.00 | 28 | 1004.4 |
| 20260508192056 | 68 | 258 | 5.0 | 13.0 | 0.00 | 0.00 | 0.00 | 27 | 1004.5 |
| 20260508191602 | 69 | 255 | 5.0 | 10.0 | 0.00 | 0.00 | 0.00 | 23 | 1004.6 |
| 20260508191058 | 70 | 270 | 4.0 | 10.0 | 0.00 | 0.00 | 0.00 | 28 | 1004.8 |
| 20260508190557 | 70 | 252 | 3.0 | 12.0 | 0.00 | 0.00 | 0.00 | 27 | 1004.8 |
| 20260508190058 | 69 | 275 | 5.0 | 12.0 | 0.00 | 0.00 | 0.00 | 25 | 1004.8 |
| 20260508185556 | 69 | 213 | 7.0 | 12.0 | 0.00 | 0.00 | 0.00 | 28 | 1004.9 |
| 20260508185056 | 69 | 250 | 4.0 | 13.0 | 0.00 | 0.00 | 0.00 | 26 | 1005.0 |
| 20260508184608 | 69 | 314 | 5.0 | 13.0 | 0.00 | 0.00 | 0.00 | 27 | 1005.3 |
| 20260508184056 | 69 | 299 | 3.0 | 11.0 | 0.00 | 0.00 | 0.00 | 29 | 1005.2 |
| 20260508183556 | 69 | 326 | 4.0 | 12.0 | 0.00 | 0.00 | 0.00 | 25 | 1005.4 |
| 20260508183057 | 68 | 293 | 5.0 | 12.0 | 0.00 | 0.00 | 0.00 | 27 | 1005.4 |
| 20260508182555 | 68 | 300 | 6.0 | 12.0 | 0.00 | 0.00 | 0.00 | 26 | 1005.4 |
| 20260508182056 | 68 | 244 | 4.0 | 10.0 | 0.00 | 0.00 | 0.00 | 26 | 1005.3 |
| 20260508181601 | 68 | 314 | 5.0 | 10.0 | 0.00 | 0.00 | 0.00 | 28 | 1005.4 |
| 20260508181057 | 67 | 208 | 3.0 | 14.0 | 0.00 | 0.00 | 0.00 | 28 | 1005.5 |
| 20260508180554 | 67 | 258 | 7.0 | 15.0 | 0.00 | 0.00 | 0.00 | 27 | 1005.7 |
| 20260508180058 | 68 | 238 | 4.0 | 15.0 | 0.00 | 0.00 | 0.00 | 27 | 1005.6 |
| 20260508175555 | 68 | 221 | 3.0 | 11.0 | 0.00 | 0.00 | 0.00 | 27 | 1005.6 |
| 20260508175056 | 67 | 265 | 3.0 | 11.0 | 0.00 | 0.00 | 0.00 | 26 | 1005.8 |
| 20260508174559 | 67 | 261 | 5.0 | 9.0 | 0.00 | 0.00 | 0.00 | 25 | 1005.8 |
| 20260508174056 | 66 | 265 | 4.0 | 10.0 | 0.00 | 0.00 | 0.00 | 28 | 1005.9 |
| 20260508173600 | 66 | 238 | 4.0 | 10.0 | 0.00 | 0.00 | 0.00 | 26 | 1006.1 |
| 20260508173053 | 67 | 49 | 5.0 | 10.0 | 0.00 | 0.00 | 0.00 | 26 | 1006.2 |
| 20260508172557 | 66 | 256 | 4.0 | 9.0 | 0.00 | 0.00 | 0.00 | 24 | 1006.2 |
| 20260508172057 | 65 | 226 | 5.0 | 8.0 | 0.00 | 0.00 | 0.00 | 29 | 1006.5 |
| 20260508171554 | 65 | 254 | 4.0 | 13.0 | 0.00 | 0.00 | 0.00 | 28 | 1006.6 |
| 20260508171056 | 65 | 309 | 5.0 | 13.0 | 0.00 | 0.00 | 0.00 | 29 | 1006.6 |
| 20260508170557 | 65 | 193 | 5.0 | 13.0 | 0.00 | 0.00 | 0.00 | 28 | 1006.8 |
| 20260508170055 | 65 | 313 | 5.0 | 13.0 | 0.00 | 0.00 | 0.00 | 26 | 1007.0 |
| 20260508165600 | 65 | 328 | 5.0 | 13.0 | 0.00 | 0.00 | 0.00 | 27 | 1006.9 |
| 20260508165057 | 63 | 273 | 4.0 | 13.0 | 0.00 | 0.00 | 0.00 | 31 | 1007.0 |
| 20260508164557 | 63 | 283 | 7.0 | 13.0 | 0.00 | 0.00 | 0.00 | 30 | 1007.0 |
| 20260508164057 | 64 | 236 | 6.0 | 12.0 | 0.00 | 0.00 | 0.00 | 29 | 1007.1 |
| 20260508163555 | 63 | 231 | 6.0 | 12.0 | 0.00 | 0.00 | 0.00 | 30 | 1007.2 |
| 20260508163054 | 63 | 271 | 6.0 | 11.0 | 0.00 | 0.00 | 0.00 | 29 | 1007.3 |
| 20260508162600 | 64 | 259 | 6.0 | 11.0 | 0.00 | 0.00 | 0.00 | 29 | 1007.0 |
| 20260508162057 | 65 | 291 | 5.0 | 10.0 | 0.00 | 0.00 | 0.00 | 29 | 1007.1 |
| 20260508161557 | 64 | 250 | 4.0 | 10.0 | 0.00 | 0.00 | 0.00 | 31 | 1007.2 |
| 20260508161056 | 62 | 252 | 6.0 | 14.0 | 0.00 | 0.00 | 0.00 | 29 | 1007.3 |
| 20260508160552 | 62 | 269 | 5.0 | 14.0 | 0.00 | 0.00 | 0.00 | 28 | 1007.3 |
| 20260508160130 | 63 | 259 | 7.0 | 14.0 | 0.00 | 0.00 | 0.00 | 28 | 1007.3 |
| 20260508155557 | 64 | 262 | 4.0 | 13.0 | 0.00 | 0.00 | 0.00 | 29 | 1007.3 |
| 20260508155056 | 63 | 263 | 6.0 | 13.0 | 0.00 | 0.00 | 0.00 | 30 | 1007.3 |
| 20260508154559 | 63 | 260 | 6.0 | 11.0 | 0.00 | 0.00 | 0.00 | 28 | 1007.3 |
| 20260508154056 | 62 | 262 | 6.0 | 10.0 | 0.00 | 0.00 | 0.00 | 28 | 1007.4 |
| 20260508153556 | 62 | 252 | 5.0 | 10.0 | 0.00 | 0.00 | 0.00 | 30 | 1007.4 |
| 20260508153058 | 62 | 259 | 4.0 | 11.0 | 0.00 | 0.00 | 0.00 | 30 | 1007.4 |
| 20260508152555 | 62 | 260 | 5.0 | 12.0 | 0.00 | 0.00 | 0.00 | 31 | 1007.5 |
| 20260508152056 | 63 | 257 | 4.0 | 14.0 | 0.00 | 0.00 | 0.00 | 30 | 1007.5 |
| 20260508151600 | 63 | 210 | 5.0 | 14.0 | 0.00 | 0.00 | 0.00 | 31 | 1007.6 |
| 20260508151056 | 62 | 210 | 5.0 | 18.0 | 0.00 | 0.00 | 0.00 | 31 | 1007.6 |
| 20260508150555 | 62 | 221 | 5.0 | 18.0 | 0.00 | 0.00 | 0.00 | 30 | 1007.7 |
| 20260508150100 | 62 | 264 | 6.0 | 18.0 | 0.00 | 0.00 | 0.00 | 32 | 1007.8 |
| 20260508145555 | 61 | 209 | 4.0 | 16.0 | 0.00 | 0.00 | 0.00 | 31 | 1007.9 |
| 20260508145052 | 61 | 235 | 5.0 | 16.0 | 0.00 | 0.00 | 0.00 | 32 | 1008.0 |
| 20260508144559 | 61 | 245 | 5.0 | 16.0 | 0.00 | 0.00 | 0.00 | 32 | 1008.0 |
| 20260508144056 | 60 | 290 | 6.0 | 17.0 | 0.00 | 0.00 | 0.00 | 33 | 1008.0 |
| 20260508143555 | 60 | 237 | 7.0 | 17.0 | 0.00 | 0.00 | 0.00 | 32 | 1008.1 |
| 20260508143105 | 59 | 191 | 8.0 | 17.0 | 0.00 | 0.00 | 0.00 | 33 | 1008.1 |
| 20260508142556 | 59 | 184 | 7.0 | 19.0 | 0.00 | 0.00 | 0.00 | 33 | 1008.1 |
| 20260508142056 | 60 | 158 | 6.0 | 19.0 | 0.00 | 0.00 | 0.00 | 31 | 1008.1 |
| 20260508141605 | 60 | 206 | 7.0 | 19.0 | 0.00 | 0.00 | 0.00 | 31 | 1008.2 |
| 20260508141056 | 59 | 95 | 8.0 | 19.0 | 0.00 | 0.00 | 0.00 | 32 | 1008.3 |
| 20260508140557 | 58 | 245 | 9.0 | 17.0 | 0.00 | 0.00 | 0.00 | 32 | 1008.4 |
| 20260508140057 | 58 | 187 | 7.0 | 16.0 | 0.00 | 0.00 | 0.00 | 33 | 1008.3 |
| 20260508135555 | 57 | 222 | 7.0 | 15.0 | 0.00 | 0.00 | 0.00 | 34 | 1008.5 |
| 20260508135057 | 56 | 207 | 6.0 | 13.0 | 0.00 | 0.00 | 0.00 | 35 | 1008.5 |
| 20260508134555 | 56 | 271 | 5.0 | 15.0 | 0.00 | 0.00 | 0.00 | 37 | 1008.6 |
| 20260508134055 | 55 | 77 | 7.0 | 15.0 | 0.00 | 0.00 | 0.00 | 35 | 1008.6 |
| 20260508133558 | 54 | 188 | 7.0 | 15.0 | 0.00 | 0.00 | 0.00 | 37 | 1008.7 |
| 20260508133101 | 53 | 223 | 6.0 | 13.0 | 0.00 | 0.00 | 0.00 | 38 | 1008.6 |
| 20260508132552 | 53 | 91 | 7.0 | 12.0 | 0.00 | 0.00 | 0.00 | 38 | 1008.7 |
| 20260508132056 | 52 | 155 | 7.0 | 14.0 | 0.00 | 0.00 | 0.00 | 38 | 1008.7 |
| 20260508131558 | 51 | 210 | 8.0 | 15.0 | 0.00 | 0.00 | 0.00 | 38 | 1008.7 |
| 20260508131052 | 51 | 101 | 6.0 | 15.0 | 0.00 | 0.00 | 0.00 | 38 | 1008.7 |
| 20260508130552 | 51 | 281 | 6.0 | 15.0 | 0.00 | 0.00 | 0.00 | 38 | 1008.8 |
| 20260508125557 | 51 | 49 | 9.0 | 15.0 | 0.00 | 0.00 | 0.00 | 38 | 1008.7 |
| 20260508125055 | 51 | 114 | 8.0 | 15.0 | 0.00 | 0.00 | 0.00 | 39 | 1008.7 |
| 20260508124559 | 50 | 126 | 6.0 | 11.0 | 0.00 | 0.00 | 0.00 | 40 | 1008.7 |
| 20260508124056 | 49 | 197 | 6.0 | 11.0 | 0.00 | 0.00 | 0.00 | 41 | 1008.7 |
| 20260508123556 | 49 | 186 | 5.0 | 11.0 | 0.00 | 0.00 | 0.00 | 43 | 1008.7 |
| 20260508123058 | 48 | 188 | 6.0 | 12.0 | 0.00 | 0.00 | 0.00 | 43 | 1008.7 |
| 20260508122555 | 47 | 221 | 7.0 | 12.0 | 0.00 | 0.00 | 0.00 | 43 | 1008.7 |
| 20260508122052 | 47 | 212 | 6.0 | 11.0 | 0.00 | 0.00 | 0.00 | 45 | 1008.7 |
| 20260508121609 | 46 | 202 | 6.0 | 11.0 | 0.00 | 0.00 | 0.00 | 45 | 1008.7 |
| 20260508121056 | 46 | 188 | 5.0 | 11.0 | 0.00 | 0.00 | 0.00 | 46 | 1008.7 |
| 20260508120555 | 45 | 270 | 4.0 | 10.0 | 0.00 | 0.00 | 0.00 | 46 | 1008.7 |
| 20260508120100 | 45 | 155 | 5.0 | 10.0 | 0.00 | 0.00 | 0.00 | 46 | 1008.6 |
| 20260508115556 | 45 | 193 | 4.0 | 9.0 | 0.00 | 0.00 | 0.00 | 46 | 1008.6 |
| 20260508115057 | 44 | 141 | 5.0 | 9.0 | 0.00 | 0.00 | 0.00 | 47 | 1008.6 |
| 20260508114614 | 44 | 187 | 3.0 | 10.0 | 0.00 | 0.00 | 0.00 | 48 | 1008.6 |
| 20260508114057 | 43 | 189 | 3.0 | 10.0 | 0.00 | 0.00 | 0.00 | 48 | 1008.5 |
| 20260508113553 | 42 | 165 | 3.0 | 9.0 | 0.00 | 0.00 | 0.00 | 49 | 1008.6 |